Wetbulb
66.82 67.31 67.16 64.32 55.67 58.64 54.74 55.05 62.47 60.36 60.68 64.37 67.04 65.08 65.04 66.09 62.54 55.37 70.04 72.77 73.89 71.28 71.97 73.61 76.33 76.68 77.37 77.55 77.57 77.70 77.60 77.57 77.57 77.34 76.74 76.43 76.40 75.86 75.10 74.83 74.96 74.93 74.62 74.40 74.24 74.19 74.06 73.89 74.19
64.15 65.68 63.38 59.54 53.91 52.39 50.66 59.01 59.85 62.38 64.18 65.72 66.72 61.85 63.66 64.07 68.61 68.53 67.07 72.76 74.32 72.52 71.75 72.25 76.34 76.61 76.74 77.12 77.34 77.50 77.34 77.40 77.04 76.69 76.15 75.89 75.53 74.87 74.27 73.76 73.87 73.94 73.76 73.52 73.38 73.49 73.84 74.38 74.66
64.81 61.69 57.56 56.46 54.67 53.18 53.42 58.02 58.28 63.52 65.74 64.73 63.86 66.28 66.11 65.50 67.34 67.63 69.82 72.82 74.41 74.10 72.95 74.22 76.39 76.49 76.23 76.21 76.69 76.74 76.74 76.54 76.03 75.76 75.40 74.97 74.40 74.11 73.72 73.28 73.10 72.83 72.81 73.21 73.88 74.28 74.34 74.44 74.59
62.60 60.17 59.15 53.71 53.60 57.52 56.72 59.19 61.68 63.41 64.45 64.90 64.21 62.38 67.50 69.57 69.02 69.73 71.54 73.18 73.25 74.29 76.07 75.13 76.61 76.46 76.06 75.62 75.80 76.01 75.95 75.77 75.59 75.12 74.86 74.45 74.02 73.81 73.89 72.95 73.96 72.97 73.76 74.28 74.55 75.04 75.14 74.91 74.74
60.90 57.73 53.31 53.25 54.55 58.62 60.39 60.61 63.35 57.91 62.82 62.87 64.46 62.33 66.06 71.16 71.17 70.84 71.41 72.22 72.63 74.93 75.67 74.27 76.51 76.14 75.80 75.18 75.19 75.50 75.47 75.55 75.47 75.03 74.47 74.19 74.21 73.98 73.86 73.60 73.15 73.75 74.28 74.53 74.72 74.86 74.53 74.28 73.94
54.94 56.42 50.94 50.86 54.52 58.80 62.27 64.09 63.68 62.29 62.05 62.76 62.92 64.28 66.28 71.89 70.28 70.96 70.64 70.64 72.24 74.78 74.36 74.34 75.93 76.21 75.98 75.49 75.42 75.33 75.50 75.40 75.09 74.75 74.54 74.55 74.55 74.29 74.00 74.03 73.82 74.06 74.15 73.15 73.26 73.01 72.93 72.99 73.39
53.20 52.83 51.46 52.32 55.37 56.81 59.08 63.24 62.73 61.92 61.62 62.63 65.15 62.33 65.90 69.54 70.91 70.44 69.66 70.46 71.57 73.18 74.03 73.94 73.73 74.80 75.71 76.11 75.96 75.79 75.58 75.08 74.91 74.96 74.88 74.87 74.66 74.46 74.42 74.89 74.75 74.19 72.96 71.93 71.87 71.94 71.60 71.48 71.86
55.54 53.82 51.27 52.78 55.28 53.53 59.20 61.82 62.42 61.12 62.43 65.48 65.79 61.32 62.41 67.56 69.83 69.41 69.07 69.35 70.31 72.04 73.08 72.43 73.65 73.30 73.23 73.70 75.91 75.30 74.71 74.19 74.36 74.42 74.41 74.78 75.06 75.05 75.12 75.10 73.69 71.13 71.19 71.41 71.69 71.67 71.69 71.67 71.49
57.89 51.62 49.61 52.08 56.03 56.45 59.67 60.23 64.09 66.43 62.60 64.49 64.79 65.72 67.35 68.56 69.04 67.85 67.40 67.48 68.68 69.54 71.04 71.93 72.05 72.28 72.44 71.92 73.60 74.32 73.72 74.19 73.77 71.76 73.05 72.98 72.51 73.17 72.90 71.67 71.30 71.93 71.49 71.40 71.49 71.66 71.65 71.61 71.70
54.15 51.47 52.10 56.94 58.56 59.09 58.72 61.28 58.46 62.96 63.68 63.52 63.82 67.17 68.13 68.74 68.44 66.69 65.73 65.73 66.93 67.78 69.29 70.60 71.14 71.45 71.63 71.77 72.02 72.68 72.92 71.46 70.19 69.32 69.91 70.42 71.85 70.57 68.66 70.10 71.65 71.30 71.52 71.45 72.03 72.47 72.40 72.48 68.77
55.04 52.02 55.02 56.72 58.41 59.00 60.90 61.06 59.92 59.17 57.81 60.93 61.47 65.89 67.34 68.30 68.40 66.45 65.61 66.42 66.57 67.24 68.98 69.91 74.24 73.18 70.96 72.74 72.46 72.37 71.82 70.35 71.88 71.74 72.25 74.03 71.50 72.77 70.79 70.73 70.15 70.18 71.92 68.58 69.51 69.02 68.35 67.65 67.25
52.50 55.34 56.07 56.81 58.35 57.77 57.01 60.22 61.47 61.76 60.01 63.09 63.31 66.61 67.65 67.50 66.93 65.91 65.04 66.20 66.29 66.09 67.63 70.15 71.92 74.02 75.84 71.35 70.14 71.71 70.20 70.76 70.41 72.07 72.89 73.66 71.71 72.68 71.26 70.23 70.00 69.59 69.12 68.76 68.33 66.83 66.79 66.73 65.64
53.00 54.08 55.69 56.92 57.63 56.98 57.99 57.80 60.07 59.41 62.21 62.81 64.39 66.40 66.81 67.29 67.09 67.50 66.75 67.16 67.33 65.59 66.92 68.69 71.33 74.01 75.66 75.07 73.18 72.84 69.85 70.84 71.28 72.12 72.14 71.65 71.35 70.83 70.79 70.21 69.67 69.40 68.83 67.55 65.61 64.90 64.90 62.87 62.73
54.69 54.39 54.50 55.56 55.56 56.90 55.41 56.19 58.03 61.59 61.47 64.49 63.14 64.88 67.03 66.65 67.28 68.32 68.56 68.31 69.92 68.13 67.55 69.71 71.68 75.22 74.05 76.32 74.90 73.69 74.08 73.29 72.66 71.82 70.23 70.94 70.76 69.81 69.18 68.64 68.87 69.03 66.87 64.88 63.76 62.03 61.72 61.12 60.76
55.32 52.22 54.17 53.68 54.83 54.66 56.63 54.61 54.94 62.27 62.71 63.06 64.08 65.40 67.17 67.71 67.35 68.92 68.67 70.58 70.42 70.26 70.33 71.55 72.16 73.65 75.29 75.75 74.79 75.35 73.53 72.27 72.70 70.10 70.34 69.77 68.77 68.02 67.99 67.82 67.85 65.81 63.41 62.66 61.62 61.23 60.68 59.82 59.39
53.01 52.97 49.17 53.25 54.19 54.80 54.89 50.18 55.54 60.14 61.61 61.94 63.35 64.46 66.22 68.31 68.11 68.99 70.41 70.31 72.41 71.04 71.16 71.60 69.38 72.80 74.70 74.53 74.00 73.59 73.18 73.29 72.40 70.55 68.32 68.43 67.70 67.02 65.75 64.99 64.85 62.74 62.22 61.04 60.70 59.94 58.61 57.82 57.64
52.60 47.27 48.95 50.76 54.97 54.30 53.64 51.21 55.42 59.01 59.60 60.98 61.30 62.83 65.49 66.57 69.67 70.10 70.89 70.13 71.76 73.83 72.81 71.41 73.91 71.71 72.68 75.53 73.78 74.74 73.39 72.33 71.99 68.64 68.85 65.87 66.04 64.34 63.70 63.54 63.17 62.44 61.06 60.67 59.28 58.12 57.64 55.32 55.20
48.08 48.59 49.61 50.24 53.54 54.42 52.84 53.50 55.26 58.45 59.48 60.72 61.61 61.06 63.65 65.73 66.92 70.85 70.62 69.39 70.80 72.02 75.83 75.64 74.33 76.24 73.98 73.75 74.98 73.48 70.71 71.65 70.54 67.75 66.39 65.89 63.71 62.81 62.60 60.72 60.81 59.58 58.77 58.55 58.51 57.04 55.80 54.24 53.71
51.13 50.70 50.45 52.21 55.55 53.90 53.18 54.29 54.93 57.64 59.30 58.84 59.99 61.19 65.07 65.35 67.33 66.85 67.59 63.41 72.81 73.90 74.57 77.76 77.56 75.60 73.83 72.42 71.49 69.99 69.45 70.43 68.80 68.40 64.89 64.41 62.52 60.25 61.99 60.14 59.42 59.92 57.76 57.27 57.25 55.01 53.39 52.73 53.88
51.37 50.00 50.46 53.16 54.85 54.26 53.74 53.14 55.55 57.23 57.34 58.33 58.50 63.85 66.23 61.88 62.50 63.82 62.77 60.79 70.79 73.02 74.38 72.99 72.95 74.28 72.17 70.28 68.58 68.49 68.17 67.07 67.12 65.76 64.19 62.17 61.23 61.03 60.00 59.54 59.35 58.57 56.73 57.92 56.04 54.96 53.05 53.18 53.65
51.38 50.12 50.34 49.90 52.98 54.58 53.14 51.28 53.42 55.33 57.20 58.00 60.28 64.50 65.98 64.70 61.30 62.05 61.95 68.10 69.80 68.77 69.24 69.36 69.78 69.09 70.59 69.65 68.26 67.72 67.25 67.27 66.22 64.90 64.03 62.48 60.72 58.35 59.76 59.77 59.37 58.80 58.19 55.67 56.20 55.94 54.88 51.20 52.26
48.88 51.99 50.86 50.16 49.42 46.36 53.00 45.56 53.05 54.27 55.43 56.93 61.47 64.08 64.47 66.07 64.44 65.98 67.47 67.12 67.61 67.80 68.72 68.44 68.32 67.76 67.48 67.54 69.57 69.75 66.32 63.22 62.01 60.89 60.45 60.50 59.90 60.25 59.40 59.53 59.20 58.61 57.00 56.75 56.16 56.30 55.88 53.62 50.55
50.48 53.23 52.27 51.24 49.24 49.40 49.18 47.38 51.13 54.79 54.20 57.89 62.63 63.24 63.75 66.12 66.53 65.72 64.92 64.62 65.34 66.12 65.36 66.39 65.53 65.48 65.85 65.77 65.89 65.55 63.54 63.66 62.32 61.96 61.91 61.85 61.32 60.75 59.20 59.11 58.95 57.97 56.68 56.19 56.77 55.94 55.86 55.12 52.99
53.96 52.53 52.57 52.48 50.09 44.90 48.64 47.98 48.61 52.45 55.08 59.61 61.54 61.55 62.02 63.33 63.17 63.03 63.48 63.84 63.69 64.59 63.84 63.15 63.41 63.76 64.14 63.59 62.73 62.41 61.25 60.75 58.11 58.12 58.81 57.08 58.21 58.83 59.94 58.35 58.18 58.10 57.14 55.99 55.73 56.27 55.64 55.27 54.45
52.47 51.05 45.07 43.67 43.79 42.88 50.20 47.98 50.71 56.27 60.35 61.10 60.24 60.74 61.71 62.13 61.80 61.73 61.99 62.17 62.95 62.90 62.45 62.11 62.17 61.15 62.66 61.76 60.73 60.13 60.09 60.16 60.12 58.33 56.22 56.03 56.60 57.15 58.06 58.00 57.75 56.70 56.46 55.98 55.63 55.85 56.05 54.23 53.64
50.75 50.99 46.24 41.42 42.49 45.14 51.10 47.18 51.10 57.67 61.96 62.83 61.96 61.71 62.14 62.08 62.29 62.11 62.38 62.43 62.59 62.44 62.03 61.53 60.95 60.66 60.93 59.98 58.76 58.65 59.51 57.98 57.72 55.41 56.42 55.23 54.28 54.67 56.18 55.53 56.20 55.70 56.03 56.47 55.59 55.50 54.78 55.00 54.63
51.27 49.24 52.61 49.74 50.34 46.49 48.85 52.34 56.71 58.90 59.14 60.54 60.64 61.01 61.22 61.88 62.18 62.06 62.50 62.65 62.13 61.60 61.77 61.38 60.47 58.94 58.61 58.24 59.01 58.68 58.45 58.15 57.41 58.07 57.66 54.57 55.76 53.01 53.89 54.85 54.78 55.53 55.20 55.97 55.42 53.85 54.05 53.92 53.59
52.69 54.65 48.89 49.90 43.22 42.01 47.20 49.33 49.48 55.21 56.50 58.57 59.43 60.22 61.41 61.93 61.80 61.94 62.24 62.12 61.66 61.31 61.46 61.31 59.98 58.29 58.31 58.00 57.64 57.54 57.90 56.65 56.87 56.95 55.76 55.61 54.96 54.82 54.10 54.04 54.22 53.79 53.89 55.26 55.33 53.66 52.74 52.13 52.77
50.25 48.96 51.70 53.19 50.30 44.87 43.25 47.06 58.08 56.63 58.07 58.30 59.76 61.42 61.24 61.41 61.36 61.80 61.73 61.42 60.87 60.42 59.73 59.28 58.37 57.16 57.05 57.22 57.25 56.96 55.70 55.61 56.24 55.47 54.91 55.01 55.16 54.36 53.52 53.63 53.87 54.29 54.45 55.18 54.22 53.42 52.03 49.72 50.27
52.53 51.37 51.72 48.17 48.11 50.49 49.81 48.36 57.68 59.34 59.17 60.61 59.63 62.36 62.06 62.06 61.87 61.85 61.22 60.98 60.14 60.12 59.11 58.22 58.60 56.62 56.11 55.29 55.57 55.80 55.13 55.64 56.22 55.82 55.22 55.60 54.57 54.25 53.30 52.76 52.56 52.80 52.81 52.25 51.42 49.49 48.86 48.08 48.30
MSLP
1010.41 1010.20 1009.48 1008.20 1008.01 1007.53 1007.51 1006.50 1003.51 1003.28 1003.14 1003.23 1004.02 1004.85 1005.66 1006.55 1007.83 1009.53 1009.70 1009.71 1010.87 1012.28 1013.41 1013.90 1014.29 1014.60 1014.82 1015.08 1015.38 1015.69 1016.04 1016.35 1016.68 1016.95 1017.14 1017.28 1017.39 1017.44 1017.51 1017.50 1017.54 1017.56 1017.61 1017.65 1017.66 1017.68 1017.67 1017.60 1017.56
1009.59 1008.83 1007.93 1007.31 1006.65 1007.81 1009.34 1006.76 1004.14 1003.75 1003.09 1003.28 1004.39 1005.74 1006.24 1006.97 1007.55 1008.80 1009.56 1009.67 1010.86 1012.46 1013.22 1013.92 1014.49 1014.76 1015.02 1015.30 1015.56 1015.92 1016.28 1016.57 1016.83 1016.99 1017.27 1017.31 1017.46 1017.60 1017.61 1017.70 1017.72 1017.75 1017.78 1017.74 1017.77 1017.78 1017.76 1017.68 1017.63
1009.87 1008.70 1007.54 1005.81 1005.31 1006.87 1008.58 1009.02 1007.00 1004.04 1002.90 1002.49 1003.82 1004.68 1005.60 1007.20 1007.92 1008.59 1009.35 1009.74 1010.78 1012.05 1012.95 1014.06 1014.54 1014.87 1015.22 1015.56 1015.86 1016.09 1016.41 1016.71 1016.94 1017.15 1017.35 1017.43 1017.61 1017.73 1017.80 1017.86 1017.92 1017.88 1017.87 1017.87 1017.82 1017.83 1017.79 1017.75 1017.69
1008.26 1006.70 1006.42 1005.04 1004.07 1006.62 1007.87 1007.65 1006.55 1003.86 1002.91 1002.65 1003.44 1005.10 1006.15 1006.96 1007.62 1008.85 1009.35 1009.82 1010.70 1011.30 1012.87 1014.30 1014.65 1015.04 1015.38 1015.74 1016.05 1016.24 1016.52 1016.77 1016.99 1017.26 1017.50 1017.64 1017.79 1017.88 1017.98 1018.02 1018.05 1017.97 1017.96 1017.96 1017.88 1017.86 1017.81 1017.79 1017.72
1007.45 1006.51 1004.95 1003.83 1003.29 1005.65 1006.29 1004.83 1005.52 1005.64 1002.72 1002.59 1003.24 1005.17 1006.47 1007.43 1008.17 1008.86 1009.30 1009.66 1009.93 1010.93 1012.82 1014.19 1014.79 1015.22 1015.56 1015.89 1016.14 1016.44 1016.70 1017.01 1017.23 1017.50 1017.67 1017.77 1017.87 1017.99 1018.02 1018.11 1018.07 1018.03 1018.01 1017.99 1017.93 1017.90 1017.87 1017.80 1017.71
1006.78 1005.66 1004.46 1002.90 1003.08 1004.21 1003.17 1003.03 1003.21 1003.07 1003.10 1002.76 1003.32 1004.67 1006.35 1007.57 1008.38 1008.98 1009.18 1009.37 1009.73 1011.34 1012.70 1014.17 1014.84 1015.24 1015.55 1015.91 1016.28 1016.68 1016.93 1017.20 1017.36 1017.62 1017.72 1017.83 1017.95 1018.02 1018.03 1018.09 1018.08 1018.05 1018.02 1017.98 1017.91 1017.86 1017.79 1017.69 1017.57
1006.45 1005.23 1003.89 1002.89 1003.41 1004.13 1005.35 1004.70 1003.27 1004.68 1003.52 1002.96 1003.08 1004.39 1006.37 1007.06 1008.21 1008.65 1008.83 1009.19 1009.76 1010.82 1012.53 1013.80 1014.55 1015.18 1015.70 1016.06 1016.41 1016.75 1017.06 1017.29 1017.48 1017.66 1017.75 1017.81 1017.92 1017.93 1017.96 1018.01 1018.07 1018.06 1018.02 1017.98 1017.90 1017.76 1017.62 1017.46 1017.23
1005.75 1004.93 1003.95 1002.43 1003.65 1006.27 1007.97 1005.74 1005.59 1006.16 1005.04 1003.20 1002.95 1004.01 1005.47 1006.84 1007.82 1008.30 1008.64 1009.41 1009.83 1010.64 1012.02 1013.26 1014.07 1014.79 1015.34 1015.89 1016.48 1016.87 1017.15 1017.32 1017.54 1017.59 1017.66 1017.70 1017.77 1017.65 1017.65 1017.87 1017.89 1017.77 1017.66 1017.57 1017.35 1017.28 1017.25 1017.05 1016.68
1005.29 1004.57 1003.39 1002.07 1003.22 1005.29 1005.73 1004.35 1004.67 1004.34 1004.63 1003.74 1003.63 1004.32 1005.71 1006.87 1007.50 1007.95 1008.91 1009.28 1009.75 1010.40 1011.39 1012.35 1013.23 1014.14 1014.55 1015.17 1016.32 1016.84 1017.02 1017.22 1017.30 1017.36 1017.28 1017.46 1017.33 1017.07 1017.17 1017.35 1017.22 1017.19 1017.25 1017.04 1016.87 1016.91 1016.81 1016.45 1016.36
1004.73 1003.92 1002.53 1002.20 1002.51 1003.96 1004.15 1005.62 1007.05 1003.76 1004.75 1004.17 1004.47 1005.10 1006.11 1006.76 1007.11 1007.62 1008.40 1008.81 1009.45 1010.03 1010.63 1011.37 1012.15 1012.97 1013.26 1014.10 1015.77 1016.17 1016.46 1016.63 1016.68 1016.72 1016.77 1016.98 1016.64 1016.52 1016.52 1016.72 1016.74 1017.00 1016.91 1016.74 1016.72 1016.76 1016.30 1016.26 1015.98
1003.90 1003.15 1002.42 1002.02 1001.70 1001.77 1002.84 1002.82 1004.49 1006.96 1008.16 1008.95 1008.46 1005.56 1006.17 1006.34 1006.73 1006.94 1007.52 1008.14 1008.80 1009.53 1010.11 1010.80 1011.64 1012.27 1012.37 1013.87 1014.83 1015.04 1015.40 1015.74 1015.96 1016.19 1016.50 1016.53 1016.53 1016.49 1016.42 1016.38 1016.48 1016.80 1016.39 1016.74 1016.32 1016.23 1016.10 1016.12 1015.94
1003.27 1002.69 1002.28 1001.70 1001.55 1001.83 1001.78 1001.57 1003.66 1006.62 1008.39 1008.49 1009.88 1007.92 1006.13 1005.98 1006.32 1006.42 1006.89 1007.52 1008.13 1009.03 1009.81 1010.57 1011.56 1012.29 1012.74 1013.32 1013.67 1014.12 1014.63 1015.22 1015.65 1016.16 1016.51 1016.62 1016.65 1016.66 1016.74 1016.78 1016.77 1016.65 1016.49 1016.52 1016.52 1016.46 1016.50 1016.27 1016.16
1002.89 1002.43 1002.01 1001.47 1001.35 1001.86 1001.78 1001.73 1002.44 1005.88 1004.76 1005.70 1007.73 1007.16 1005.67 1005.83 1005.94 1006.03 1006.45 1006.93 1007.67 1008.72 1009.64 1010.25 1011.33 1012.33 1012.77 1013.35 1013.42 1013.93 1014.70 1014.96 1015.72 1016.13 1016.61 1016.90 1017.00 1017.10 1017.14 1017.07 1016.97 1016.84 1016.73 1016.75 1016.95 1016.96 1016.65 1016.61 1016.30
1002.55 1002.27 1002.10 1001.58 1001.27 1001.38 1001.79 1001.93 1002.52 1006.33 1006.74 1006.72 1006.27 1006.06 1004.89 1004.99 1005.51 1005.84 1006.29 1006.78 1007.43 1008.26 1009.24 1009.99 1011.11 1012.18 1012.76 1013.48 1013.80 1014.31 1014.67 1015.22 1015.43 1015.90 1016.58 1017.01 1017.22 1017.48 1017.44 1017.25 1017.07 1017.00 1017.16 1017.28 1017.32 1016.98 1016.73 1016.63 1016.31
1002.58 1002.30 1002.04 1001.78 1001.44 1001.31 1001.38 1001.62 1002.07 1003.03 1004.02 1005.51 1003.62 1003.53 1003.72 1004.23 1004.62 1005.29 1006.18 1006.96 1007.59 1008.33 1009.10 1009.99 1010.89 1012.07 1012.91 1013.64 1014.01 1014.32 1014.71 1014.89 1015.22 1016.02 1016.76 1017.25 1017.67 1017.90 1018.10 1017.62 1017.38 1017.52 1017.88 1017.81 1017.64 1017.20 1016.90 1016.60 1016.48
1002.84 1002.54 1001.95 1001.24 1001.22 1001.27 1001.55 1001.24 1001.46 1001.64 1002.34 1003.22 1002.55 1002.64 1002.96 1003.38 1003.99 1004.76 1006.08 1007.37 1008.09 1008.70 1009.46 1009.95 1010.48 1011.69 1012.60 1013.41 1013.97 1014.32 1014.53 1014.90 1015.26 1015.97 1016.78 1017.30 1017.63 1017.74 1018.26 1018.07 1017.84 1017.87 1017.82 1017.79 1017.80 1017.56 1017.69 1017.12 1016.88
1002.78 1002.17 1001.35 1000.47 1000.38 1000.84 1001.25 1001.27 1000.68 1000.51 1001.05 1001.47 1001.68 1002.22 1002.43 1003.30 1004.21 1004.33 1004.97 1006.45 1007.92 1008.52 1009.15 1010.03 1010.71 1011.41 1012.16 1012.90 1013.55 1014.04 1014.76 1015.16 1015.64 1016.21 1016.95 1017.80 1017.93 1018.17 1018.61 1018.27 1018.22 1018.19 1018.04 1017.86 1018.05 1018.22 1018.18 1017.95 1017.48
1001.68 1001.28 1000.74 999.92 1000.15 1000.59 1000.94 1000.96 1000.57 999.77 1000.31 1000.81 1001.24 1001.80 1002.34 1003.23 1004.36 1003.89 1003.92 1005.86 1007.82 1008.63 1009.10 1009.84 1010.92 1011.31 1012.06 1012.83 1013.66 1014.28 1015.36 1015.71 1016.24 1017.36 1017.84 1018.30 1018.65 1018.66 1018.82 1018.73 1018.63 1018.65 1018.37 1018.45 1018.54 1018.76 1018.72 1018.59 1018.10
1001.46 1001.06 1000.12 999.69 999.52 1000.21 1000.60 1000.60 1000.48 1000.03 1000.26 1000.68 1001.20 1002.15 1003.44 1005.04 1006.68 1007.10 1009.49 1009.24 1008.87 1009.85 1009.89 1010.16 1010.74 1011.57 1012.27 1013.09 1014.05 1015.09 1015.92 1016.61 1017.29 1017.62 1018.25 1018.76 1019.17 1019.25 1019.07 1019.08 1018.88 1018.73 1018.82 1018.86 1018.90 1019.27 1019.07 1018.78 1018.29
1001.86 1001.51 1000.81 999.95 999.57 1000.25 1000.71 1000.67 1000.25 999.97 1000.12 1000.44 1001.48 1003.01 1005.06 1007.55 1007.76 1007.81 1012.01 1012.27 1010.39 1010.52 1011.07 1012.20 1012.84 1012.69 1013.46 1014.10 1015.11 1016.02 1016.52 1017.01 1017.50 1018.12 1018.45 1018.96 1019.20 1019.10 1019.16 1019.21 1019.00 1019.13 1019.21 1018.99 1019.24 1019.37 1019.18 1018.84 1018.47
1002.42 1002.22 1001.67 1001.04 1000.28 1000.47 1001.22 1001.33 1000.83 1000.23 1000.31 1000.83 1001.82 1003.55 1005.58 1008.00 1009.06 1010.30 1011.47 1013.92 1012.00 1012.65 1013.09 1013.41 1013.83 1014.00 1014.26 1014.99 1015.69 1016.57 1017.02 1017.35 1017.75 1018.22 1018.53 1018.72 1018.92 1019.23 1018.99 1019.02 1019.02 1019.03 1019.00 1019.09 1019.17 1019.06 1019.01 1018.86 1018.64
1002.51 1002.36 1002.11 1001.65 1001.20 1000.63 1000.75 1000.56 1000.09 1000.01 1000.16 1001.20 1002.50 1004.23 1006.40 1007.37 1009.62 1010.76 1012.00 1012.68 1012.34 1012.85 1013.45 1014.22 1014.28 1014.40 1014.90 1015.69 1015.99 1016.35 1017.02 1017.53 1018.14 1018.18 1018.69 1018.85 1018.76 1018.77 1018.72 1018.82 1018.80 1018.96 1019.07 1019.07 1019.02 1018.77 1018.78 1018.75 1018.57
1002.50 1002.24 1002.02 1001.89 1001.84 1001.55 1000.92 1000.43 999.58 999.24 1000.39 1001.84 1003.64 1005.56 1007.22 1008.12 1009.13 1010.52 1011.55 1012.40 1013.07 1013.61 1014.37 1014.57 1014.97 1015.40 1016.10 1016.60 1016.86 1016.97 1017.47 1017.60 1018.10 1018.41 1018.51 1018.39 1018.35 1018.35 1018.24 1018.64 1018.80 1018.86 1018.94 1019.00 1018.79 1018.69 1018.54 1018.44 1018.32
1002.40 1002.43 1002.75 1002.40 1002.35 1001.90 1001.47 1000.93 999.79 999.64 1000.47 1002.43 1004.72 1006.36 1007.79 1008.68 1009.80 1010.83 1011.77 1012.43 1013.12 1013.80 1014.66 1015.35 1015.88 1016.48 1016.94 1017.27 1017.66 1017.93 1018.36 1018.53 1018.69 1018.87 1018.60 1018.47 1018.34 1018.13 1018.14 1018.58 1018.80 1018.82 1018.83 1018.75 1018.54 1018.51 1018.37 1018.09 1017.87
1002.31 1002.52 1002.94 1002.82 1002.35 1001.62 1001.19 1000.86 1000.11 1000.01 1001.18 1002.93 1004.91 1006.65 1007.91 1008.96 1009.90 1010.85 1011.70 1012.51 1013.30 1014.10 1015.07 1015.93 1016.62 1017.11 1017.46 1017.80 1018.21 1018.60 1018.83 1018.88 1018.77 1019.01 1019.05 1019.07 1018.52 1018.44 1018.55 1018.51 1018.65 1018.70 1018.56 1018.42 1018.18 1018.15 1017.91 1017.85 1017.64
1001.70 1002.33 1002.44 1001.87 1001.32 1001.06 1000.81 1000.16 999.83 1000.68 1001.94 1003.34 1004.91 1006.33 1007.69 1008.82 1009.70 1010.74 1011.76 1012.78 1013.65 1014.57 1015.48 1016.31 1016.94 1017.39 1017.80 1018.28 1018.75 1019.10 1019.14 1019.02 1019.03 1019.30 1019.40 1019.25 1019.13 1019.05 1018.90 1018.81 1018.56 1018.46 1018.16 1017.99 1017.87 1017.79 1017.58 1017.30 1017.22
1001.18 1001.91 1002.31 1002.10 1001.58 1001.36 1001.09 1000.88 1001.53 1002.26 1003.05 1003.92 1005.25 1006.44 1007.19 1008.46 1009.74 1011.01 1012.12 1013.22 1014.25 1015.09 1015.76 1016.37 1017.01 1017.64 1018.14 1018.51 1018.78 1019.06 1019.32 1019.45 1019.49 1019.63 1019.61 1019.46 1019.43 1019.33 1019.10 1018.83 1018.51 1018.13 1017.93 1017.66 1017.75 1017.59 1017.44 1017.12 1016.81
1000.44 1001.11 1001.66 1001.98 1001.95 1001.72 1000.73 1000.63 1001.04 1001.93 1003.22 1004.22 1005.45 1006.36 1007.18 1008.55 1009.94 1011.29 1012.35 1013.51 1014.49 1015.42 1016.15 1016.68 1017.14 1017.74 1018.12 1018.49 1018.85 1018.99 1019.24 1019.50 1019.64 1019.74 1019.76 1019.76 1019.62 1019.37 1019.11 1018.69 1018.34 1018.06 1017.65 1017.30 1017.33 1017.34 1017.04 1016.83 1016.62
1000.63 1000.84 1001.01 1001.43 1001.76 1001.89 1001.50 1001.37 1001.51 1001.99 1002.89 1003.57 1004.58 1005.98 1007.54 1008.63 1009.97 1011.27 1012.54 1013.66 1014.68 1015.57 1016.31 1016.98 1017.48 1017.92 1018.30 1018.63 1018.95 1019.23 1019.50 1019.64 1019.79 1019.79 1019.87 1019.91 1019.70 1019.31 1018.98 1018.58 1018.17 1017.84 1017.36 1017.26 1017.20 1017.04 1016.88 1016.86 1016.41
999.93 1000.22 1000.87 1001.19 1001.80 1001.70 1001.74 1001.72 1001.45 1001.69 1002.19 1003.08 1003.86 1004.80 1006.78 1008.21 1009.90 1011.28 1012.61 1013.70 1014.65 1015.26 1016.28 1017.03 1017.47 1017.97 1018.42 1018.91 1019.17 1019.37 1019.65 1019.70 1019.80 1019.80 1019.78 1019.81 1019.57 1019.28 1019.04 1018.64 1018.31 1017.95 1017.53 1017.42 1017.49 1017.51 1017.46 1017.16 1016.63
Wind_Speed
8 11 10 10 7 6 10 13 16 14 14 14 23 19 21 15 7 5 6 7 22 17 14 14 13 13 13 12 12 12 11 10 9 8 8 8 7 6 4 4 4 4 4 4 4 4 5 5 6
11 16 10 7 9 7 5 11 18 12 14 12 23 19 8 17 15 18 12 12 22 16 12 13 13 12 12 12 11 10 10 9 8 8 7 6 5 3 3 2 2 2 3 3 3 4 5 6 7
13 16 7 8 14 5 3 15 29 9 7 13 18 16 7 13 16 14 15 17 20 16 15 13 12 11 11 11 10 9 9 8 7 6 5 4 3 2 1 0 1 2 3 4 4 5 5 6 7
8 8 8 10 11 10 10 15 35 10 7 12 21 16 20 14 16 16 16 17 16 18 17 14 12 10 10 10 9 8 8 7 7 5 4 3 3 2 1 2 3 3 4 5 5 5 6 6 7
9 8 12 18 13 24 19 30 17 10 13 10 21 20 17 16 18 17 15 14 14 19 18 14 12 10 10 9 8 7 7 5 5 4 4 3 3 3 3 3 3 3 4 5 6 6 6 7 7
9 12 15 17 8 14 4 10 11 9 14 15 18 19 16 16 16 12 12 12 14 19 16 13 12 10 10 9 8 6 5 5 4 4 4 4 4 4 4 4 3 3 4 5 5 5 7 7 8
12 13 18 23 2 6 18 32 20 14 11 9 14 20 15 16 16 14 13 10 14 18 17 12 12 10 9 8 7 6 5 5 4 4 4 5 6 6 6 5 3 2 2 3 4 5 6 8 9
13 13 22 23 15 9 15 36 13 23 8 8 6 10 15 18 16 13 14 10 12 15 16 13 11 12 10 9 8 7 6 4 4 4 6 8 7 8 9 7 5 4 4 5 8 8 9 11 14
19 13 16 23 5 11 20 8 32 33 13 8 14 20 20 19 16 14 12 11 12 10 16 15 14 13 11 12 10 8 7 7 6 6 10 7 7 9 9 7 12 11 9 11 11 10 12 15 14
18 14 23 11 1 19 3 14 35 6 12 14 18 24 21 18 14 15 13 12 13 11 14 15 15 14 14 12 12 9 9 8 8 8 7 7 6 3 1 8 13 9 11 13 12 11 16 12 6
18 17 21 15 3 11 17 17 8 29 17 10 22 22 19 17 12 14 14 15 14 12 9 13 7 8 10 14 9 7 7 5 3 5 3 4 4 1 2 2 1 4 5 5 5 6 5 10 9
20 20 20 21 8 7 14 13 15 21 21 26 34 29 17 15 12 12 12 14 14 12 10 12 12 4 6 8 7 6 5 4 4 5 1 2 2 4 4 3 5 4 3 6 5 6 8 8 10
19 20 20 16 9 8 16 14 10 27 22 32 34 24 16 13 11 10 10 11 14 13 11 12 14 7 5 3 3 4 5 3 6 6 4 4 4 4 3 3 4 4 4 5 6 7 6 8 9
16 18 16 22 12 10 14 15 12 21 19 21 31 27 17 16 12 10 9 10 10 13 13 13 15 8 7 1 5 5 3 4 2 5 5 5 3 3 4 4 3 3 5 6 6 6 5 6 7
14 14 13 19 11 17 13 14 16 14 31 37 13 12 17 16 17 13 12 8 10 11 11 11 16 12 8 4 4 1 4 4 3 7 5 2 3 3 4 4 4 5 6 7 6 6 6 5 8
13 13 16 17 17 16 14 16 18 14 7 13 14 14 14 17 17 17 13 11 8 11 11 10 12 15 9 7 6 4 3 1 4 6 6 2 2 5 5 5 4 5 4 5 5 5 7 7 7
14 13 19 20 19 11 11 16 21 16 11 9 7 14 14 11 14 16 18 18 13 8 14 11 6 15 14 7 6 3 6 3 4 4 5 6 6 6 5 4 4 5 4 4 7 7 6 8 8
16 19 14 15 13 12 15 14 20 3 10 13 12 9 10 16 12 9 18 18 13 13 10 11 9 4 12 8 4 4 5 4 5 7 5 7 6 7 5 6 5 5 5 5 6 7 7 7 8
21 15 12 15 12 12 14 10 14 12 11 8 11 12 11 20 16 27 28 34 19 12 8 7 8 6 6 7 5 6 4 2 5 4 8 6 5 6 5 3 4 5 6 6 6 5 7 7 8
17 11 16 15 6 8 8 12 14 12 10 10 8 14 15 19 20 28 12 15 9 14 15 13 12 11 11 5 5 4 3 3 2 5 4 4 3 4 4 4 3 5 4 5 5 4 5 6 7
11 13 15 16 13 10 7 13 18 18 13 3 3 10 14 18 14 14 14 11 14 16 14 13 12 10 10 7 6 3 1 1 1 3 3 1 3 3 2 3 4 4 3 3 4 3 4 4 5
15 16 15 16 15 12 16 13 16 20 14 10 7 10 12 11 18 17 11 9 12 12 12 11 10 10 8 10 2 1 5 4 2 1 5 0 3 3 3 2 3 3 4 4 4 4 3 2 5
16 15 13 16 15 15 19 11 12 11 16 13 14 10 6 10 15 15 13 12 11 11 11 12 13 12 10 10 8 4 6 4 4 2 3 4 4 6 4 4 4 3 3 5 6 6 5 4 3
15 11 13 8 11 13 17 17 15 11 14 16 14 10 8 10 13 14 13 12 12 12 13 11 10 9 8 8 8 8 7 5 4 5 4 5 5 4 6 4 4 3 3 5 4 5 7 5 4
15 10 9 11 11 13 17 17 13 12 22 22 18 14 12 11 12 12 12 11 11 11 11 10 9 8 7 8 7 7 3 3 2 4 5 5 3 3 5 4 4 3 4 5 5 5 4 5 6
17 14 11 12 12 8 14 15 9 15 18 20 18 16 15 14 13 12 12 11 11 11 10 10 9 8 7 7 7 4 5 4 4 4 4 5 5 6 7 6 5 6 7 4 6 5 5 5 4
17 16 19 18 17 13 4 10 11 14 14 18 19 16 16 14 13 13 13 12 11 10 9 9 9 8 7 6 5 4 4 2 3 4 4 5 5 6 7 7 7 6 6 4 6 5 7 6 7
20 16 14 10 11 14 12 14 10 18 16 17 17 16 15 14 15 13 12 12 11 10 8 8 9 7 7 5 4 3 4 4 4 4 5 6 6 6 7 7 6 6 6 6 4 6 7 8 6
13 17 15 10 10 10 11 4 11 12 11 14 17 18 15 15 15 13 13 12 12 11 10 8 8 8 7 3 4 4 3 5 3 5 5 4 5 7 6 7 7 7 6 5 5 7 7 10 10
19 19 19 10 13 10 9 2 1 14 15 16 14 20 19 16 15 13 13 12 11 10 9 6 5 5 6 4 4 3 3 3 3 2 4 5 6 7 8 9 9 9 9 8 10 10 11 12 13
Wind_Direction
249 239 237 255 253 59 356 309 80 104 98 85 62 42 76 53 120 168 175 134 115 118 128 134 130 132 135 134 133 135 136 132 131 131 131 131 127 120 108 94 76 63 56 46 33 19 7 360 351
282 282 243 278 255 110 274 301 80 76 93 107 92 75 25 76 84 127 136 132 114 127 143 136 136 135 136 139 138 135 133 134 137 138 142 141 141 133 113 84 58 32 15 8 0 356 352 348 341
269 264 273 227 238 99 205 83 272 107 153 117 101 79 107 104 126 138 132 131 121 142 131 126 135 135 137 140 136 133 135 139 145 153 163 160 160 162 165 22 335 329 339 345 352 351 347 338 330
270 257 236 244 265 91 125 235 247 155 92 92 108 89 79 116 126 128 146 131 146 139 122 133 135 138 140 144 143 141 150 159 164 170 180 183 199 211 246 281 293 332 339 340 340 335 335 330 330
249 272 267 261 278 151 163 228 175 227 125 100 104 103 99 92 106 134 141 140 159 121 121 138 138 142 144 152 153 157 160 160 169 190 201 213 226 240 252 273 309 327 331 331 333 339 340 332 325
275 262 280 274 59 308 182 173 115 104 82 113 111 107 101 114 129 134 149 158 134 117 130 139 144 148 152 156 158 160 156 166 175 203 214 224 233 241 252 261 284 322 342 348 346 340 334 321 305
258 283 285 291 145 30 328 308 86 7 131 102 129 110 124 138 133 153 163 143 123 125 121 147 158 157 154 155 155 157 156 168 186 208 222 233 236 238 242 248 267 298 2 351 329 304 292 287 277
256 274 286 279 124 166 205 253 125 107 315 85 138 141 144 118 147 158 126 142 142 139 138 149 153 162 168 167 160 159 163 168 203 221 236 232 230 229 227 220 205 184 207 242 249 254 265 268 262
268 271 268 278 125 181 232 229 304 162 153 165 79 105 113 136 149 153 138 167 137 164 141 154 162 159 180 154 158 159 166 185 198 212 225 219 222 205 201 169 183 201 217 235 244 248 256 259 271
248 254 260 338 236 143 157 189 225 149 137 137 107 113 124 146 154 148 163 167 151 176 154 157 164 162 188 150 149 179 177 190 195 195 191 208 212 144 165 194 209 216 232 248 259 257 256 269 277
244 248 272 288 337 343 195 214 100 273 41 21 326 136 144 150 165 157 168 163 163 170 156 149 129 159 176 132 168 178 173 186 156 110 43 34 350 76 315 26 178 237 249 255 359 319 327 347 331
257 256 267 277 64 304 289 311 166 152 117 102 280 264 152 159 168 162 168 164 160 147 149 148 123 135 46 133 165 154 146 137 156 102 98 17 276 31 21 353 349 313 349 343 357 343 335 330 330
246 265 266 276 284 273 295 300 303 139 137 173 219 256 149 176 172 161 160 159 140 138 138 149 132 148 98 49 104 97 115 138 120 122 88 34 340 38 341 349 301 348 343 4 353 327 322 324 312
250 243 268 270 271 242 259 276 281 99 36 284 200 225 164 173 175 154 160 150 141 141 145 139 135 128 127 116 66 93 50 123 197 97 84 115 333 40 306 311 355 324 19 1 320 313 309 316 308
270 272 279 250 259 259 258 258 263 159 188 218 157 165 162 175 180 174 167 165 152 140 146 136 133 138 136 168 114 164 163 192 140 102 97 63 8 36 347 318 330 30 5 332 317 326 315 335 336
262 255 259 244 229 251 245 259 247 227 173 199 195 179 183 181 186 172 164 160 151 151 141 145 157 145 154 159 155 194 155 219 98 117 126 33 189 92 345 339 359 24 342 314 329 332 344 335 334
233 243 236 257 199 221 204 257 265 228 208 210 241 221 188 190 190 181 164 159 159 169 148 152 161 155 159 161 157 187 93 52 77 78 84 33 5 30 6 331 10 4 320 351 356 349 345 331 331
234 216 251 251 168 190 219 232 265 254 185 215 218 268 231 188 201 311 160 155 153 164 153 154 153 175 148 149 120 121 97 59 59 45 45 34 5 12 8 343 8 350 6 349 351 358 354 330 324
271 303 269 250 179 178 243 228 256 254 215 243 244 239 358 38 42 51 354 351 38 32 46 132 142 123 99 127 149 78 95 89 67 96 48 23 359 3 344 356 345 6 9 331 25 358 335 317 311
258 280 284 295 190 164 238 275 269 251 270 189 239 47 47 80 83 102 269 167 207 70 66 33 53 57 61 55 37 24 67 86 251 74 90 40 351 319 351 344 328 29 337 353 12 326 312 307 348
268 267 262 276 282 170 211 263 274 262 237 176 58 39 56 112 118 136 160 243 66 68 70 71 69 62 71 88 93 92 110 116 301 97 94 12 46 345 263 3 25 346 324 3 306 296 321 319 315
241 245 256 269 265 266 199 246 237 239 199 204 117 67 39 87 146 148 128 96 76 78 72 82 74 57 50 37 100 219 72 68 78 280 104 251 228 268 301 28 1 31 345 339 317 315 322 301 299
257 261 285 231 263 272 271 270 260 270 162 163 100 81 61 63 89 93 92 92 96 94 84 68 70 67 65 58 44 20 33 52 102 6 336 248 215 222 214 58 338 35 336 316 320 328 310 264 266
250 241 265 288 255 250 250 267 264 177 177 121 109 117 123 96 92 95 97 97 99 97 90 75 72 70 65 68 61 55 52 39 32 357 304 23 324 1 70 31 326 15 321 313 317 311 309 314 304
227 223 241 231 231 242 237 235 254 106 129 134 141 143 133 125 114 115 119 113 109 108 105 111 104 102 92 82 70 65 59 73 34 355 4 317 342 338 37 357 347 323 288 287 300 303 294 312 300
210 226 239 235 222 254 252 233 206 123 113 133 142 145 141 146 136 135 125 129 121 116 105 111 121 121 106 91 81 71 31 33 16 34 3 307 354 340 338 356 309 302 296 291 293 304 320 290 288
195 218 246 268 286 287 236 77 115 122 137 137 141 152 149 136 132 134 130 118 122 125 125 122 113 109 113 123 121 101 49 42 38 1 345 7 357 336 340 315 306 305 304 323 315 309 306 307 309
251 213 220 237 260 275 253 184 222 161 155 156 157 154 143 137 142 136 136 128 128 123 120 123 124 123 108 96 65 72 86 50 23 12 352 1 351 325 315 312 306 295 286 276 279 292 297 296 297
215 243 254 237 235 237 274 145 91 135 179 170 166 150 150 154 143 147 135 135 129 144 133 132 132 136 123 117 80 83 25 27 38 20 12 350 332 325 316 307 309 305 311 348 331 318 347 340 326
236 217 232 242 238 261 279 176 273 188 188 178 191 153 151 153 145 142 140 141 147 134 131 116 111 117 93 90 71 73 27 356 22 346 355 351 347 337 339 342 333 332 354 338 17 6 352 338 326